| time (UTC) | temp F | wind direction | speed MPH | gust MPH | rain 1hr in | rain 24hr in | rain mn in | humidity % | barometer mb |
| 20260504060140 | 41 | 246 | 7.0 | 18.0 | 0.00 | 0.00 | 0.00 | 90 | 1005.5 |
| 20260504050636 | 39 | 268 | 3.0 | 6.0 | 0.00 | 0.00 | 0.00 | 91 | 1005.5 |
| 20260504050136 | 39 | 240 | 3.0 | 6.0 | 0.00 | 0.00 | 0.00 | 91 | 1005.6 |
| 20260504045636 | 39 | 240 | 2.0 | 6.0 | 0.00 | 0.00 | 0.00 | 91 | 1005.6 |
| 20260504045136 | 39 | 234 | 2.0 | 4.0 | 0.00 | 0.00 | 0.00 | 91 | 1005.7 |
| 20260504044636 | 39 | 248 | 2.0 | 7.0 | 0.00 | 0.00 | 0.00 | 91 | 1005.7 |
| 20260504044357 | 39 | 248 | 2.0 | 7.0 | 0.00 | 0.00 | 0.00 | 90 | 1005.8 |
| 20260504043859 | 39 | 225 | 2.0 | 4.0 | 0.00 | 0.00 | 0.00 | 90 | 1005.8 |
| 20260504043135 | 39 | 221 | 2.0 | 5.0 | 0.00 | 0.00 | 0.00 | 89 | 1005.9 |
| 20260504042633 | 40 | 221 | 2.0 | 7.0 | 0.00 | 0.00 | 0.00 | 88 | 1005.9 |
| 20260504042354 | 40 | 246 | 2.0 | 7.0 | 0.00 | 0.00 | 0.00 | 88 | 1005.9 |
| 20260504041634 | 40 | 249 | 3.0 | 8.0 | 0.00 | 0.00 | 0.00 | 87 | 1006.0 |
| 20260504041133 | 40 | 238 | 4.0 | 8.0 | 0.00 | 0.00 | 0.00 | 86 | 1006.1 |
| 20260504040135 | 40 | 242 | 5.0 | 10.0 | 0.00 | 0.00 | 0.00 | 84 | 1006.1 |
| 20260504035636 | 40 | 240 | 5.0 | 11.0 | 0.00 | 0.00 | 0.00 | 83 | 1006.0 |
| 20260504035133 | 40 | 255 | 5.0 | 13.0 | 0.00 | 0.00 | 0.00 | 82 | 1006.1 |
| 20260504034633 | 41 | 238 | 6.0 | 13.0 | 0.00 | 0.00 | 0.00 | 80 | 1006.1 |
| 20260504034350 | 41 | 267 | 5.0 | 12.0 | 0.00 | 0.00 | 0.00 | 79 | 1006.1 |
| 20260504033617 | 41 | 271 | 5.0 | 12.0 | 0.00 | 0.00 | 0.00 | 78 | 1006.1 |
| 20260504033331 | 41 | 224 | 6.0 | 11.0 | 0.00 | 0.00 | 0.00 | 77 | 1006.2 |
| 20260504032601 | 41 | 251 | 6.0 | 12.0 | 0.00 | 0.00 | 0.00 | 76 | 1006.1 |
| 20260504032055 | 41 | 229 | 5.0 | 12.0 | 0.00 | 0.00 | 0.00 | 75 | 1006.1 |
| 20260504031554 | 41 | 225 | 6.0 | 13.0 | 0.00 | 0.00 | 0.00 | 74 | 1006.1 |
| 20260504031053 | 41 | 303 | 7.0 | 13.0 | 0.00 | 0.00 | 0.00 | 74 | 1006.1 |
| 20260504030553 | 41 | 249 | 9.0 | 13.0 | 0.00 | 0.00 | 0.00 | 72 | 1006.4 |
| 20260504030315 | 42 | 224 | 9.0 | 18.0 | 0.00 | 0.00 | 0.00 | 71 | 1006.4 |
| 20260504025550 | 41 | 199 | 7.0 | 18.0 | 0.00 | 0.00 | 0.00 | 68 | 1006.2 |
| 20260504025050 | 41 | 209 | 6.0 | 13.0 | 0.00 | 0.00 | 0.00 | 67 | 1006.2 |
| 20260504024550 | 41 | 250 | 6.0 | 13.0 | 0.00 | 0.00 | 0.00 | 66 | 1006.2 |
| 20260504024050 | 41 | 236 | 6.0 | 12.0 | 0.00 | 0.00 | 0.00 | 66 | 1006.2 |
| 20260504023550 | 40 | 244 | 6.0 | 14.0 | 0.00 | 0.00 | 0.00 | 66 | 1006.4 |
| 20260504023050 | 39 | 288 | 6.0 | 14.0 | 0.00 | 0.00 | 0.00 | 65 | 1006.4 |
| 20260504022809 | 39 | 269 | 4.0 | 11.0 | 0.00 | 0.00 | 0.00 | 64 | 1006.4 |
| 20260504022045 | 39 | 240 | 4.0 | 7.0 | 0.00 | 0.00 | 0.00 | 64 | 1006.4 |
| 20260504021545 | 39 | 254 | 3.0 | 8.0 | 0.00 | 0.00 | 0.00 | 63 | 1006.2 |
| 20260504021045 | 38 | 257 | 4.0 | 8.0 | 0.00 | 0.00 | 0.00 | 63 | 1006.2 |
| 20260504020546 | 38 | 250 | 4.0 | 7.0 | 0.00 | 0.00 | 0.00 | 63 | 1006.2 |
| 20260504020046 | 39 | 271 | 4.0 | 8.0 | 0.00 | 0.00 | 0.00 | 62 | 1006.2 |
| 20260504015546 | 39 | 257 | 4.0 | 8.0 | 0.00 | 0.00 | 0.00 | 61 | 1006.4 |
| 20260504015046 | 38 | 252 | 4.0 | 10.0 | 0.00 | 0.00 | 0.00 | 62 | 1006.2 |
| 20260504014542 | 38 | 284 | 4.0 | 10.0 | 0.00 | 0.00 | 0.00 | 65 | 1006.2 |
| 20260504014042 | 38 | 244 | 3.0 | 9.0 | 0.00 | 0.00 | 0.00 | 62 | 1006.2 |
| 20260504013541 | 38 | 261 | 3.0 | 7.0 | 0.00 | 0.00 | 0.00 | 60 | 1006.4 |
| 20260504013042 | 38 | 273 | 2.0 | 7.0 | 0.00 | 0.00 | 0.00 | 60 | 1006.4 |
| 20260504012808 | 37 | 262 | 2.0 | 7.0 | 0.00 | 0.00 | 0.00 | 60 | 1006.4 |
| 20260504012041 | 37 | 259 | 3.0 | 7.0 | 0.00 | 0.00 | 0.00 | 59 | 1006.2 |
| 20260504011542 | 37 | 254 | 2.0 | 7.0 | 0.00 | 0.00 | 0.00 | 60 | 1006.4 |
| 20260504011042 | 37 | 269 | 2.0 | 7.0 | 0.00 | 0.00 | 0.00 | 60 | 1006.4 |
| 20260504010538 | 37 | 252 | 2.0 | 4.0 | 0.00 | 0.00 | 0.00 | 60 | 1006.4 |
| 20260504010038 | 37 | 252 | 2.0 | 4.0 | 0.00 | 0.00 | 0.00 | 60 | 1006.2 |
| 20260504005537 | 38 | 252 | 2.0 | 6.0 | 0.00 | 0.00 | 0.00 | 59 | 1006.1 |
| 20260504005037 | 38 | 250 | 2.0 | 8.0 | 0.00 | 0.00 | 0.00 | 57 | 1006.2 |
| 20260504004538 | 39 | 281 | 2.0 | 8.0 | 0.00 | 0.00 | 0.00 | 55 | 1006.1 |
| 20260504004300 | 39 | 295 | 3.0 | 6.0 | 0.00 | 0.00 | 0.00 | 53 | 1006.2 |
| 20260504003537 | 39 | 259 | 3.0 | 7.0 | 0.00 | 0.00 | 0.00 | 55 | 1006.2 |
| 20260504003304 | 39 | 286 | 3.0 | 9.0 | 0.00 | 0.00 | 0.00 | 54 | 1006.2 |
| 20260504002535 | 39 | 261 | 4.0 | 9.0 | 0.00 | 0.00 | 0.00 | 55 | 1006.1 |
| 20260504002033 | 39 | 253 | 4.0 | 9.0 | 0.00 | 0.00 | 0.00 | 55 | 1006.1 |
| 20260504001028 | 41 | 255 | 3.0 | 9.0 | 0.00 | 0.00 | 0.00 | 53 | 1005.9 |
| 20260504000738 | 41 | 268 | 3.0 | 9.0 | 0.00 | 0.00 | 0.00 | 50 | 1006.0 |
| 20260504000012 | 42 | 312 | 4.0 | 13.0 | 0.00 | 0.00 | 0.00 | 49 | 1005.9 |
| 20260503235506 | 43 | 253 | 6.0 | 16.0 | 0.00 | 0.00 | 0.00 | 46 | 1005.9 |
| 20260503234955 | 43 | 242 | 6.0 | 16.0 | 0.00 | 0.00 | 0.00 | 46 | 1005.9 |
| 20260503234451 | 43 | 296 | 5.0 | 12.0 | 0.00 | 0.00 | 0.00 | 45 | 1005.8 |
| 20260503233942 | 43 | 252 | 5.0 | 11.0 | 0.00 | 0.00 | 0.00 | 44 | 1005.8 |
| 20260503233431 | 44 | 238 | 6.0 | 14.0 | 0.00 | 0.00 | 0.00 | 42 | 1005.8 |
| 20260503232925 | 43 | 273 | 4.0 | 14.0 | 0.00 | 0.00 | 0.00 | 44 | 1005.7 |
| 20260503232419 | 43 | 309 | 3.0 | 15.0 | 0.00 | 0.00 | 0.00 | 46 | 1005.7 |
| 20260503231909 | 44 | 248 | 5.0 | 15.0 | 0.00 | 0.00 | 0.00 | 43 | 1005.6 |
| 20260503231403 | 44 | 231 | 5.0 | 17.0 | 0.00 | 0.00 | 0.00 | 44 | 1005.5 |
| 20260503230856 | 45 | 277 | 4.0 | 17.0 | 0.00 | 0.00 | 0.00 | 43 | 1005.5 |
| 20260503230347 | 45 | 246 | 4.0 | 11.0 | 0.00 | 0.00 | 0.00 | 42 | 1005.5 |
| 20260503225848 | 46 | 259 | 4.0 | 9.0 | 0.00 | 0.00 | 0.00 | 42 | 1005.4 |
| 20260503225347 | 46 | 282 | 5.0 | 13.0 | 0.00 | 0.00 | 0.00 | 40 | 1005.4 |
| 20260503224847 | 46 | 265 | 7.0 | 15.0 | 0.00 | 0.00 | 0.00 | 40 | 1005.3 |
| 20260503224347 | 47 | 225 | 6.0 | 15.0 | 0.00 | 0.00 | 0.00 | 41 | 1005.3 |
| 20260503223847 | 47 | 302 | 5.0 | 14.0 | 0.00 | 0.00 | 0.00 | 40 | 1005.3 |
| 20260503223347 | 47 | 275 | 6.0 | 15.0 | 0.00 | 0.00 | 0.00 | 43 | 1005.2 |
| 20260503223110 | 46 | 284 | 7.0 | 16.0 | 0.00 | 0.00 | 0.00 | 42 | 1005.2 |
| 20260503222347 | 46 | 243 | 9.0 | 17.0 | 0.00 | 0.00 | 0.00 | 41 | 1005.2 |
| 20260503221847 | 47 | 241 | 7.0 | 17.0 | 0.00 | 0.00 | 0.00 | 38 | 1005.2 |
| 20260503221347 | 47 | 241 | 5.0 | 16.0 | 0.00 | 0.00 | 0.00 | 40 | 1005.2 |
| 20260503220848 | 47 | 306 | 5.0 | 15.0 | 0.00 | 0.00 | 0.00 | 39 | 1005.2 |
| 20260503220347 | 47 | 232 | 6.0 | 17.0 | 0.00 | 0.00 | 0.00 | 38 | 1005.1 |
| 20260503215847 | 48 | 233 | 5.0 | 17.0 | 0.00 | 0.00 | 0.00 | 39 | 1005.2 |
| 20260503215342 | 48 | 292 | 5.0 | 13.0 | 0.00 | 0.00 | 0.00 | 40 | 1005.2 |
| 20260503215051 | 48 | 246 | 7.0 | 16.0 | 0.00 | 0.00 | 0.00 | 39 | 1005.1 |
| 20260503214325 | 48 | 246 | 6.0 | 16.0 | 0.00 | 0.00 | 0.00 | 42 | 1005.1 |
| 20260503213820 | 48 | 338 | 6.0 | 13.0 | 0.00 | 0.00 | 0.00 | 40 | 1005.1 |
| 20260503213310 | 47 | 302 | 6.0 | 13.0 | 0.00 | 0.00 | 0.00 | 43 | 1005.2 |
| 20260503212804 | 47 | 322 | 6.0 | 15.0 | 0.00 | 0.00 | 0.00 | 41 | 1005.2 |
| 20260503212258 | 47 | 274 | 6.0 | 15.0 | 0.00 | 0.00 | 0.00 | 40 | 1005.2 |
| 20260503211752 | 47 | 259 | 6.0 | 13.0 | 0.00 | 0.00 | 0.00 | 43 | 1005.1 |
| 20260503211246 | 46 | 280 | 7.0 | 13.0 | 0.00 | 0.00 | 0.00 | 44 | 1005.3 |
| 20260503210740 | 47 | 257 | 7.0 | 16.0 | 0.00 | 0.00 | 0.00 | 41 | 1005.2 |
| 20260503210230 | 48 | 290 | 7.0 | 16.0 | 0.00 | 0.00 | 0.00 | 42 | 1005.2 |
| 20260503205946 | 47 | 251 | 7.0 | 15.0 | 0.00 | 0.00 | 0.00 | 43 | 1005.2 |
| 20260503205438 | 47 | 219 | 8.0 | 16.0 | 0.00 | 0.00 | 0.00 | 42 | 1005.2 |
| 20260503204708 | 47 | 242 | 8.0 | 18.0 | 0.00 | 0.00 | 0.00 | 41 | 1005.3 |
| 20260503204428 | 47 | 236 | 9.0 | 18.0 | 0.00 | 0.00 | 0.00 | 42 | 1005.2 |
| 20260503203656 | 47 | 338 | 9.0 | 18.0 | 0.00 | 0.00 | 0.00 | 42 | 1005.2 |
| 20260503203146 | 47 | 217 | 7.0 | 16.0 | 0.00 | 0.00 | 0.00 | 45 | 1005.4 |
| 20260503202641 | 47 | 190 | 5.0 | 14.0 | 0.00 | 0.00 | 0.00 | 43 | 1005.3 |
| 20260503202135 | 46 | 331 | 6.0 | 17.0 | 0.00 | 0.00 | 0.00 | 45 | 1005.3 |
| 20260503201624 | 46 | 330 | 7.0 | 17.0 | 0.00 | 0.00 | 0.00 | 44 | 1005.4 |
| 20260503201118 | 46 | 311 | 7.0 | 15.0 | 0.00 | 0.00 | 0.00 | 44 | 1005.4 |
| 20260503200831 | 46 | 15 | 7.0 | 16.0 | 0.00 | 0.00 | 0.00 | 45 | 1005.4 |
| 20260503195556 | 46 | 284 | 7.0 | 16.0 | 0.00 | 0.00 | 0.00 | 47 | 1005.5 |
| 20260503195050 | 46 | 258 | 6.0 | 16.0 | 0.00 | 0.00 | 0.00 | 46 | 1005.5 |
| 20260503194540 | 46 | 333 | 6.0 | 14.0 | 0.00 | 0.00 | 0.00 | 44 | 1005.6 |
| 20260503194034 | 46 | 318 | 5.0 | 14.0 | 0.00 | 0.00 | 0.00 | 46 | 1005.6 |
| 20260503193528 | 46 | 326 | 6.0 | 15.0 | 0.00 | 0.00 | 0.00 | 47 | 1005.7 |
| 20260503193018 | 45 | 259 | 8.0 | 19.0 | 0.00 | 0.00 | 0.00 | 46 | 1005.8 |
| 20260503192512 | 45 | 270 | 7.0 | 19.0 | 0.00 | 0.00 | 0.00 | 46 | 1005.8 |
| 20260503192006 | 45 | 270 | 6.0 | 14.0 | 0.00 | 0.00 | 0.00 | 46 | 1005.8 |
| 20260503191456 | 46 | 228 | 7.0 | 18.0 | 0.00 | 0.00 | 0.00 | 45 | 1005.9 |
| 20260503190949 | 45 | 265 | 8.0 | 18.0 | 0.00 | 0.00 | 0.00 | 46 | 1005.9 |
| 20260503190444 | 45 | 248 | 8.0 | 16.0 | 0.00 | 0.00 | 0.00 | 46 | 1005.9 |
| 20260503185933 | 45 | 251 | 7.0 | 16.0 | 0.00 | 0.00 | 0.00 | 45 | 1006.0 |
| 20260503185428 | 47 | 248 | 6.0 | 17.0 | 0.00 | 0.00 | 0.00 | 47 | 1006.0 |
| 20260503184412 | 45 | 259 | 9.0 | 21.0 | 0.00 | 0.00 | 0.00 | 48 | 1006.1 |
| 20260503184123 | 45 | 273 | 9.0 | 26.0 | 0.00 | 0.00 | 0.00 | 50 | 1006.1 |
| 20260503183400 | 44 | 284 | 8.0 | 26.0 | 0.00 | 0.00 | 0.00 | 47 | 1006.1 |
| 20260503182850 | 45 | 290 | 6.0 | 23.0 | 0.00 | 0.00 | 0.00 | 49 | 1005.9 |
| 20260503182344 | 46 | 251 | 8.0 | 24.0 | 0.00 | 0.00 | 0.00 | 46 | 1006.0 |
| 20260503181838 | 45 | 229 | 8.0 | 24.0 | 0.00 | 0.00 | 0.00 | 46 | 1006.2 |
| 20260503181327 | 47 | 259 | 8.0 | 20.0 | 0.00 | 0.00 | 0.00 | 45 | 1006.1 |
| 20260503180821 | 47 | 267 | 9.0 | 20.0 | 0.00 | 0.00 | 0.00 | 46 | 1006.2 |
| 20260503180315 | 46 | 275 | 10.0 | 21.0 | 0.00 | 0.00 | 0.00 | 47 | 1006.1 |
| 20260503175814 | 46 | 291 | 10.0 | 23.0 | 0.00 | 0.00 | 0.00 | 49 | 1006.1 |
| 20260503175315 | 45 | 213 | 7.0 | 23.0 | 0.00 | 0.00 | 0.00 | 49 | 1006.1 |
| 20260503174815 | 46 | 268 | 7.0 | 22.0 | 0.00 | 0.00 | 0.00 | 50 | 1006.1 |
| 20260503174314 | 46 | 329 | 8.0 | 22.0 | 0.00 | 0.00 | 0.00 | 49 | 1006.2 |
| 20260503173813 | 45 | 323 | 8.0 | 16.0 | 0.00 | 0.00 | 0.00 | 51 | 1006.2 |
| 20260503172813 | 44 | 250 | 6.0 | 16.0 | 0.00 | 0.00 | 0.00 | 52 | 1006.5 |
| 20260503172316 | 43 | 242 | 5.0 | 16.0 | 0.00 | 0.00 | 0.00 | 52 | 1006.4 |
| 20260503171813 | 44 | 259 | 6.0 | 14.0 | 0.00 | 0.00 | 0.00 | 51 | 1006.4 |
| 20260503171313 | 44 | 303 | 6.0 | 13.0 | 0.00 | 0.00 | 0.00 | 48 | 1006.2 |
| 20260503170812 | 45 | 275 | 6.0 | 13.0 | 0.00 | 0.00 | 0.00 | 55 | 1006.4 |
| 20260503170313 | 44 | 217 | 5.0 | 13.0 | 0.00 | 0.00 | 0.00 | 55 | 1006.5 |
| 20260503150809 | 40 | 275 | 6.0 | 13.0 | 0.00 | 0.00 | 0.00 | 63 | 1007.4 |
| 20260503150308 | 40 | 227 | 6.0 | 13.0 | 0.00 | 0.00 | 0.00 | 62 | 1007.4 |
| 20260503131250 | 38 | 260 | 3.0 | 11.0 | 0.00 | 0.00 | 0.00 | 78 | 1007.8 |
| 20260503130749 | 38 | 265 | 4.0 | 11.0 | 0.00 | 0.00 | 0.00 | 80 | 1007.8 |
| 20260503130515 | 38 | 281 | 4.0 | 12.0 | 0.00 | 0.00 | 0.00 | 80 | 1007.9 |
| 20260503110202 | 35 | 254 | 6.0 | 15.0 | 0.00 | 0.00 | 0.00 | 85 | 1007.2 |
| 20260503100139 | 34 | 277 | 6.0 | 16.0 | 0.00 | 0.00 | 0.00 | 89 | 1006.9 |
| 20260503090304 | 34 | 293 | 3.0 | 13.0 | 0.00 | 0.00 | 0.00 | 88 | 1007.0 |
| 20260503081018 | 34 | 256 | 1.0 | 5.0 | 0.00 | 0.00 | 0.00 | 89 | 1007.6 |
| 20260503080516 | 34 | 299 | 1.0 | 3.0 | 0.00 | 0.00 | 0.00 | 88 | 1007.6 |
| 20260503072732 | 35 | 281 | 3.0 | 9.0 | 0.00 | 0.00 | 0.00 | 88 | 1007.7 |
| 20260503072008 | 35 | 254 | 3.0 | 12.0 | 0.00 | 0.00 | 0.00 | 88 | 1007.6 |
| 20260503071009 | 35 | 308 | 5.0 | 13.0 | 0.00 | 0.00 | 0.00 | 87 | 1007.7 |
| 20260503070506 | 35 | 295 | 5.0 | 13.0 | 0.00 | 0.01 | 0.00 | 87 | 1007.6 |
| 20260503070230 | 35 | 219 | 5.0 | 13.0 | 0.00 | 0.01 | 0.00 | 88 | 1007.6 |